GFSMA_con_mucape_084.txt.gz
CAPE
467 203 139 332 415 201 165 204 573 417 317 214 192 145 77 24 20 27 29 17 35 62 15 18 32 35 23 22 12 14 13 11 8 8 8 8 5 4 4 3 2 3 2
415 242 305 458 250 87 114 128 298 288 263 210 213 123 25 10 11 11 11 12 23 45 53 35 44 32 12 12 10 12 9 12 11 8 6 5 3 4 3 1 1 0 0
520 414 495 441 195 184 87 104 271 325 177 172 161 90 21 11 8 6 11 30 27 24 39 50 51 31 13 12 12 9 13 17 16 9 7 7 4 4 2 0 0 0 0
249 184 269 395 236 115 152 99 301 180 170 162 96 79 21 6 6 4 13 41 18 18 33 41 42 32 30 12 11 11 9 14 13 13 9 8 3 0 0 0 0 0 0
78 163 468 460 195 82 201 65 197 191 171 143 99 62 23 19 10 18 14 40 30 11 35 18 17 23 28 27 14 10 8 9 9 14 12 0 0 0 0 0 0 0 0
259 222 184 201 76 57 45 45 141 193 185 138 59 45 60 28 18 22 17 39 41 31 42 27 21 16 12 25 22 10 12 10 8 10 2 0 0 0 0 0 0 0 0
177 95 74 72 59 62 28 33 165 175 145 144 87 72 49 9 37 20 18 35 31 29 30 38 27 17 5 10 21 10 13 11 11 8 0 0 0 0 0 0 0 0 0
143 67 50 54 58 28 46 18 125 149 152 134 84 56 32 32 17 27 20 31 36 33 29 18 13 11 6 3 4 13 12 12 14 12 2 3 3 0 0 0 0 0 0
56 36 38 20 12 41 20 14 109 157 150 151 149 60 25 27 42 53 46 24 26 24 19 33 33 30 18 3 0 1 2 8 59 134 107 20 1 1 0 0 0 0 0
18 19 3 8 9 22 38 27 24 137 126 133 134 97 47 26 62 69 91 74 43 16 33 14 10 9 3 17 13 1 0 0 0 39 184 269 200 101 53 20 6 1 9
6 1 16 30 20 16 15 34 43 174 169 159 77 117 129 123 100 75 75 89 94 78 85 70 47 53 31 35 51 36 0 1 0 1 16 121 275 340 327 273 179 118 74
3 6 6 12 9 24 29 4 71 128 100 153 101 162 117 112 100 115 93 119 117 139 141 122 151 109 109 97 46 30 41 16 21 24 33 40 73 146 209 257 334 334 307
6 9 1 0 10 14 30 43 48 34 68 138 139 170 48 75 99 111 107 70 71 128 142 157 148 120 105 137 88 33 23 21 11 22 47 54 56 50 56 85 135 212 287
11 11 3 9 32 32 53 31 0 4 50 126 109 139 138 118 128 137 77 39 11 89 111 140 128 203 186 156 196 94 82 31 20 23 48 74 65 47 13 5 0 8 51
47 6 0 0 2 30 9 4 1 5 1 64 167 177 111 120 87 89 74 68 60 0 72 146 82 107 202 212 146 175 133 35 6 19 36 31 25 33 9 2 6 9 6
27 24 4 13 0 8 4 1 1 0 0 0 0 0 17 67 91 95 91 61 58 0 0 49 103 65 99 30 25 41 65 58 41 12 11 15 12 3 0 0 4 16 15
7 31 2 6 3 0 1 9 3 3 6 3 0 1 2 1 17 4 28 13 0 0 0 0 0 9 110 53 27 29 7 7 5 2 1 2 3 2 2 2 5 7 3
31 31 19 0 1 16 2 6 1 4 13 1 3 0 0 4 0 0 0 0 0 0 0 0 0 0 0 14 10 0 4 0 33 15 1 0 4 1 0 1 3 0 0
13 21 22 38 10 2 4 17 10 6 14 4 1 2 7 0 2 4 0 0 1 3 6 2 4 2 2 0 16 93 79 143 158 7 2 0 0 4 11 9 3 0 8
3 5 3 6 6 10 7 17 13 29 20 26 7 12 16 13 0 4 4 6 15 18 5 41 44 94 96 25 90 90 117 175 168 76 12 5 8 3 3 1 5 10 1
24 23 17 1 4 0 0 0 0 0 6 14 6 54 69 40 47 50 37 38 91 73 13 44 83 67 118 143 84 53 29 25 21 16 9 16 23 86 3 0 0 0 0
7 0 0 4 0 0 0 0 0 1 32 7 15 11 12 15 5 11 6 1 9 11 9 12 11 5 4 8 8 21 10 10 4 4 6 10 8 10 10 2 0 1 0
35 72 19 9 4 2 2 0 0 1 5 2 6 9 9 6 5 18 34 33 23 19 11 11 10 10 4 3 3 1 0 0 0 0 0 0 0 0 8 5 4 3 3
45 96 66 52 56 89 43 47 35 34 22 24 32 27 30 51 67 115 150 128 129 59 44 38 32 44 25 21 6 2 0 0 0 0 0 0 0 0 0 3 1 1 1
20 26 5 2 6 7 12 2 2 9 25 42 34 45 48 58 71 103 32 86 57 48 51 33 3 0 0 0 0 0 0 1 5 1 0 0 0 0 0 0 1 0 0
0 0 0 0 0 0 2 2 1 2 4 3 5 14 15 14 13 22 24 20 56 45 3 5 1 1 0 0 0 0 0 0 0 0 0 0 0 0 0 0 0 0 0

GFSMA_con_mucape_087.txt.gz
CAPE
1243 897 506 519 569 739 181 46 108 336 578 426 351 270 78 115 51 74 3 0 29 52 27 24 23 12 22 22 18 15 10 6 3 11 13 9 5 5 4 4 6 2 2
1211 975 755 629 758 668 299 45 116 158 574 423 275 234 78 56 32 31 19 7 21 39 30 26 27 34 31 25 20 10 8 14 7 14 14 12 8 6 3 5 1 1 2
841 952 805 887 378 402 438 77 102 109 285 229 179 123 51 51 22 10 22 24 19 8 22 54 60 40 16 10 8 7 6 7 8 10 14 14 11 10 4 1 0 0 0
693 698 704 656 596 314 261 61 103 80 103 167 159 64 66 35 21 12 19 11 11 6 18 44 44 42 32 7 10 12 12 11 8 7 9 11 4 5 5 1 0 0 0
521 630 616 509 346 299 237 147 65 67 128 125 121 104 52 19 17 9 28 10 11 21 30 32 25 19 33 31 14 11 12 13 12 9 8 6 3 3 2 0 0 0 0
313 313 176 196 130 261 265 182 86 85 139 142 81 60 61 48 33 19 19 16 21 17 26 25 20 12 17 33 25 10 10 11 10 9 7 5 4 0 0 0 0 0 0
268 215 194 157 60 192 140 151 93 64 68 85 126 87 83 56 42 21 24 12 32 8 28 36 6 5 0 6 15 8 10 9 7 7 4 4 0 0 0 0 0 0 0
211 294 172 73 73 75 51 85 70 58 84 152 121 41 60 34 59 39 28 1 50 24 25 40 26 6 7 0 0 6 4 7 6 5 4 10 8 8 5 0 0 0 0
431 305 181 103 64 85 45 38 21 37 41 94 140 42 24 22 41 41 66 20 56 26 28 17 9 8 11 18 0 0 0 0 34 91 73 31 11 5 0 0 0 2 4
223 195 172 101 76 35 55 41 15 45 69 143 110 83 41 25 32 66 59 29 32 4 37 35 18 8 15 10 6 0 0 0 0 42 152 154 89 41 29 26 30 22 17
4 23 16 21 21 35 8 35 32 38 50 170 99 162 131 143 85 79 48 95 44 70 38 24 17 17 9 5 16 7 0 0 0 0 24 156 275 263 172 133 125 120 104
0 0 0 0 7 20 8 14 41 17 71 123 124 179 156 116 146 125 130 121 99 88 111 127 96 53 35 20 0 0 15 22 17 8 0 18 100 203 302 349 370 347 294
0 2 0 2 14 13 11 26 25 44 113 102 157 127 204 202 165 158 170 83 43 64 73 159 200 200 124 239 187 36 36 42 61 64 25 4 6 21 71 147 206 279 343
0 5 6 5 4 12 34 42 11 35 75 128 163 155 132 144 193 109 103 77 52 64 67 134 183 209 240 240 196 138 101 69 55 54 48 26 20 25 28 42 61 62 88
2 4 5 0 4 6 12 12 8 9 20 94 128 90 124 110 192 151 129 124 90 0 0 60 34 191 229 249 175 188 218 148 90 66 46 22 13 12 23 35 20 32 22
17 17 3 4 3 7 9 33 44 26 1 2 36 80 118 117 88 85 114 139 114 76 0 0 30 41 98 48 93 90 231 114 78 68 43 23 9 2 3 12 13 11 12
30 49 23 0 6 0 6 3 6 1 0 0 2 0 6 82 90 143 128 107 107 68 36 7 0 0 5 6 7 20 17 22 31 20 16 17 3 3 3 5 1 2 10
27 4 46 3 0 10 0 0 1 3 4 1 5 8 5 2 0 2 27 4 3 1 2 0 0 1 1 0 2 6 0 7 7 0 0 7 1 0 10 4 2 0 1
24 37 27 7 3 4 2 1 1 3 5 3 2 8 9 1 0 0 10 5 6 1 0 1 1 7 19 4 16 14 11 9 4 0 11 2 0 1 4 21 44 52 39
6 10 9 29 4 4 9 0 0 4 1 8 2 3 7 1 6 14 5 1 6 2 9 10 7 6 14 66 80 60 94 85 65 78 47 37 34 25 16 15 25 7 18
3 5 6 11 5 4 5 1 6 9 15 5 18 15 7 13 16 17 2 6 7 2 14 4 3 14 15 15 15 47 47 30 103 21 11 34 46 32 11 32 23 14 13
3 3 2 5 5 4 5 3 8 56 8 7 9 20 12 9 19 36 35 35 26 28 21 32 30 27 0 0 21 21 0 30 0 0 6 1 6 0 5 0 9 1 13
4 0 0 0 0 0 0 0 0 2 5 14 4 5 7 6 5 3 0 0 6 8 17 32 9 20 10 0 0 12 11 2 4 0 5 0 0 0 1 1 0 1 2
56 76 58 76 27 26 18 24 12 10 9 12 18 36 39 51 49 56 73 66 55 54 68 25 4 5 38 26 30 27 12 4 0 1 10 3 1 2 0 1 2 0 0
91 125 155 150 159 167 68 44 35 58 66 60 51 86 69 59 73 83 103 58 28 51 29 12 40 6 17 18 13 2 25 12 9 2 0 0 0 0 0 0 0 0 0
10 10 23 21 5 13 7 4 4 5 13 11 36 25 12 4 3 24 19 19 13 11 11 2 2 0 0 0 0 0 0 0 0 0 0 0 0 0 0 0 0 0 0

GFSMA_con_mucape_090.txt.gz
CAPE
1079 951 912 584 298 306 208 197 184 84 124 311 280 174 168 110 71 26 11 0 0 16 18 16 25 21 12 8 4 13 5 3 4 13 11 8 17 17 12 16 17 6 1
1056 956 771 567 400 376 209 147 120 46 70 151 198 149 182 124 37 33 1 0 0 16 33 34 17 15 20 25 7 9 3 3 5 3 11 6 8 11 15 8 5 2 1
974 748 618 504 417 349 152 47 53 24 44 137 107 136 154 80 38 1 0 0 0 13 21 34 33 24 21 7 3 8 8 15 11 8 10 3 3 0 0 0 0 0 0
853 767 530 467 439 311 166 48 48 36 89 121 79 122 82 30 12 2 0 0 0 0 7 25 35 48 42 19 17 12 10 9 10 9 10 4 3 0 0 0 0 0 0
836 685 523 469 337 303 159 44 34 25 63 52 58 48 34 15 1 0 4 0 0 1 6 18 15 18 37 38 5 13 9 11 10 8 4 3 0 1 1 0 0 0 0
742 593 446 389 337 147 79 52 44 48 28 57 102 41 18 7 0 6 13 6 0 4 4 3 5 11 20 33 22 11 11 11 11 7 7 5 5 2 2 0 0 0 0
512 377 304 267 250 120 85 59 45 33 38 76 29 32 39 14 3 0 23 8 1 0 0 0 0 0 0 15 20 13 6 7 7 6 6 6 9 10 4 0 0 0 0
323 236 196 235 278 128 95 55 77 22 43 34 3 0 0 34 41 21 20 20 14 2 0 0 0 0 0 0 0 15 7 11 9 9 11 16 12 11 5 0 0 0 0
291 197 134 226 297 94 95 70 53 44 0 42 45 0 0 0 29 23 23 9 16 25 2 2 2 1 0 0 0 0 0 0 16 44 34 21 21 19 4 0 0 0 0
155 85 87 108 74 103 128 81 56 39 19 24 36 31 16 1 1 14 23 15 13 15 10 11 9 10 5 7 0 0 0 0 0 2 35 86 61 38 31 30 26 20 19
191 142 183 131 75 54 73 79 53 73 27 10 0 0 23 60 5 0 0 5 6 6 0 0 12 1 0 0 0 0 0 0 0 0 0 33 166 139 119 111 111 105 103
142 70 1 38 87 55 41 34 64 49 21 15 16 21 11 46 32 43 33 8 0 0 0 0 0 10 1 0 0 0 0 0 0 0 0 1 37 102 224 257 218 219 221
13 0 2 0 1 7 10 32 35 32 26 19 12 4 69 80 137 95 90 40 35 36 11 4 0 0 7 0 0 0 1 0 0 6 6 5 5 2 33 98 234 388 435
0 0 0 8 23 1 23 6 32 21 32 6 19 42 63 86 129 75 74 46 54 49 21 50 119 63 64 56 80 89 91 71 45 27 15 27 33 25 12 0 10 36 87
0 0 0 0 0 1 17 9 7 8 15 38 8 44 83 94 129 138 130 100 39 12 30 69 63 141 141 142 108 108 102 81 83 59 60 45 30 27 20 10 8 9 11
0 5 0 0 1 2 0 0 19 33 7 21 36 44 62 60 81 75 75 94 93 76 0 43 61 55 122 97 80 83 75 88 95 110 93 87 61 34 24 20 10 2 1
15 3 3 2 0 6 2 4 9 28 18 28 9 29 0 15 64 14 46 72 64 76 6 1 50 34 18 24 11 5 3 3 11 16 18 18 15 21 16 8 5 6 6
25 13 2 4 1 7 1 7 22 29 21 12 24 0 1 0 0 0 3 3 53 44 19 0 1 1 0 4 2 0 2 8 10 16 16 18 18 20 29 24 22 9 12
13 14 21 1 8 4 12 6 7 2 0 0 0 0 0 0 1 1 1 2 7 23 12 15 4 0 0 0 2 6 6 4 17 11 21 13 3 0 2 4 1 16 27
10 12 21 5 6 7 10 7 2 8 5 4 7 8 7 8 7 12 0 0 13 8 11 9 12 8 15 16 12 15 11 10 18 40 28 17 10 13 26 26 24 38 49
2 6 6 3 2 2 5 9 1 4 9 5 7 14 14 2 2 2 4 13 24 15 22 3 10 3 15 9 14 13 15 34 42 64 45 45 35 26 46 31 37 23 53
5 4 3 2 5 4 3 2 2 5 4 2 5 8 25 11 12 8 4 3 22 20 32 29 7 20 7 5 0 17 2 10 0 22 25 27 20 3 7 18 19 18 0
4 1 1 6 7 7 3 1 1 5 10 9 6 18 21 19 9 26 17 17 15 24 22 20 0 12 11 13 14 2 0 3 3 0 2 0 6 1 0 2 0 2 2
3 5 3 1 2 2 3 2 2 2 6 8 12 13 10 12 13 24 15 12 13 20 15 9 16 3 4 12 17 4 7 3 0 1 0 0 0 0 0 0 0 0 0
8 0 6 9 18 30 26 22 24 18 14 23 9 17 33 25 45 33 33 33 28 1 13 27 14 3 15 2 0 2 1 1 0 0 0 0 0 0 0 0 0 0 0
24 38 90 80 88 106 100 67 33 33 38 30 35 26 23 21 32 50 40 42 50 25 10 1 11 2 5 0 0 0 0 0 0 0 0 0 0 0 0 0 0 0 0

GFSMA_con_mucape_096.txt.gz
CAPE
1226 1108 1051 910 798 738 512 561 503 205 259 250 174 77 105 229 221 165 158 298 352 440 393 327 319 226 72 33 38 26 17 10 12 7 3 19 24 20 7 14 14 11 8
1134 1002 979 943 876 682 491 509 232 100 59 173 160 87 73 115 157 109 120 141 102 93 141 108 88 52 42 37 30 30 26 18 20 6 5 22 20 18 17 15 9 8 8
1114 1013 950 941 845 625 491 276 134 77 44 162 73 75 68 61 90 105 77 18 17 0 0 33 61 40 32 21 28 24 26 31 18 8 22 17 14 10 11 12 6 4 5
1226 1116 1070 998 777 601 445 273 156 88 54 39 60 25 44 46 46 90 42 3 0 0 0 8 31 36 42 15 8 10 5 12 24 6 7 16 9 8 8 8 3 2 2
1258 1110 1037 1029 851 570 473 313 107 118 59 32 21 19 55 47 38 58 41 30 1 0 0 4 17 18 35 40 13 10 16 7 8 7 12 16 16 13 10 6 2 1 0
1286 1159 1040 921 667 530 438 298 215 89 55 56 12 65 47 57 48 47 38 1 0 0 0 0 1 12 18 34 39 25 22 15 9 8 7 5 11 15 12 4 1 1 0
1008 1045 993 919 705 542 423 292 216 137 74 32 49 64 42 37 29 37 6 0 0 0 0 0 0 5 13 20 31 35 17 21 21 11 10 6 5 22 15 8 4 2 0
763 945 759 662 593 513 427 333 199 94 53 25 12 7 5 0 30 25 15 2 0 0 0 0 0 3 0 0 0 21 9 25 18 15 12 23 8 16 12 12 9 5 4
438 1300 735 621 508 427 542 368 166 119 38 26 16 1 7 0 13 8 2 0 0 0 0 0 0 0 0 0 0 0 2 6 27 27 34 26 29 30 17 8 7 5 3
1060 711 712 578 397 320 273 238 164 79 47 43 36 11 5 0 0 1 0 1 0 0 0 0 0 0 0 0 0 0 0 0 0 6 22 23 23 20 19 14 12 4 2
544 751 522 494 402 281 196 126 125 84 78 76 30 26 29 5 0 0 0 0 0 0 0 0 0 0 0 0 0 0 0 0 0 0 0 27 53 62 69 73 75 57 40
189 609 300 235 269 151 143 136 105 86 61 79 44 30 36 22 0 3 0 0 0 0 0 0 0 0 0 0 0 0 0 0 0 0 0 0 49 150 158 158 163 168 149
84 167 253 186 168 195 127 62 107 103 102 76 49 23 25 0 0 0 0 0 4 0 0 0 0 0 0 0 0 0 0 0 0 0 0 7 4 19 88 182 233 242 237
133 152 209 214 158 102 46 45 53 88 37 56 66 48 5 4 5 3 1 0 0 0 1 3 10 10 11 13 1 0 0 0 0 0 0 0 2 3 11 25 60 113 188
301 235 117 82 21 30 17 74 56 54 53 16 1 39 22 8 0 6 4 0 0 0 11 27 28 33 26 9 2 0 19 43 39 33 48 48 62 69 78 63 70 64 66
128 79 40 11 21 3 1 0 7 29 41 22 18 19 38 19 2 1 4 23 49 67 0 79 84 60 29 26 50 31 28 31 44 39 42 39 45 32 30 38 52 51 43
7 39 23 17 11 2 4 4 9 7 50 12 4 31 35 7 7 5 36 37 53 51 7 50 47 38 58 78 72 64 55 68 48 47 42 40 37 33 22 25 17 12 12
28 73 36 6 1 0 1 12 9 2 4 18 5 11 22 21 13 6 0 38 26 0 26 20 19 36 37 17 63 75 60 47 34 17 21 15 3 0 2 9 14 19 12
73 43 30 2 3 1 0 22 25 9 12 13 29 17 30 24 15 13 16 66 1 4 3 1 0 0 0 0 24 31 22 33 10 1 4 10 12 16 17 16 25 38 36
159 84 34 8 1 2 4 15 23 26 4 3 31 26 19 33 21 16 22 20 34 0 0 95 0 0 4 3 0 0 0 3 6 27 21 27 8 12 6 16 17 8 11
73 44 28 7 10 6 16 9 20 21 13 2 4 7 4 3 3 11 0 0 24 3 10 9 1 0 0 2 0 4 0 15 7 16 11 8 12 4 8 9 6 13 10
26 36 26 2 8 8 7 5 4 22 23 18 16 9 0 20 3 7 8 9 0 9 39 1 0 1 25 14 22 13 12 20 9 24 1 21 7 11 6 7 1 4 5
10 8 8 7 8 8 4 11 1 1 12 22 23 12 10 10 0 9 2 0 4 7 1 5 1 4 2 1 17 10 23 10 7 10 17 5 0 9 5 2 5 0 1
17 3 6 10 6 7 7 23 23 6 8 11 18 14 5 8 12 15 19 5 5 2 16 25 12 6 23 5 4 2 14 7 0 0 4 0 2 0 1 0 0 0 0
12 11 7 7 7 8 5 17 22 9 10 7 5 3 1 1 12 4 4 2 4 5 9 7 7 4 5 6 11 2 0 0 0 2 0 0 0 0 0 0 0 0 0
3 21 23 19 10 15 17 7 20 10 9 15 10 8 18 19 20 7 9 11 12 2 0 1 4 3 1 1 1 2 0 0 0 0 0 0 0 0 0 0 0 0 0

GFSMA_con_mucape_102.txt.gz
CAPE
1863 1647 1436 1349 1149 884 721 640 438 448 318 594 579 531 551 447 343 251 414 592 541 743 1280 1030 810 659 485 254 191 47 19 13 5 0 0 11 14 33 25 20 19 3 5
2171 1709 1596 1338 1239 1016 851 757 550 373 309 452 539 462 323 299 121 124 141 343 414 433 596 920 818 680 535 254 168 93 25 17 11 10 10 15 21 15 1 29 10 17 4
1794 1632 1615 1387 1232 1164 1007 801 620 459 242 439 457 292 210 85 59 48 45 78 163 215 268 468 561 660 492 290 142 61 36 43 25 7 13 3 18 17 16 19 4 6 6
1817 1696 1484 1354 1295 1185 1064 807 717 507 302 346 186 115 73 27 42 60 61 55 97 141 304 369 378 350 351 299 145 55 43 36 32 30 24 17 24 10 7 7 20 9 4
1619 1502 1410 1182 1156 1107 1025 909 799 641 290 217 116 65 50 33 41 57 68 56 45 123 170 126 132 186 158 242 108 48 48 38 29 34 27 32 6 16 10 14 19 17 14
1263 1178 1155 1064 1405 809 765 803 788 663 433 233 84 63 34 38 41 42 37 32 38 71 77 33 27 24 22 45 60 47 43 22 34 33 24 22 8 7 13 13 15 13 10
1047 1018 975 922 908 827 688 695 873 558 532 297 138 59 45 48 1 20 36 22 18 45 56 24 5 0 8 17 38 39 38 22 43 48 32 26 8 5 5 6 18 17 10
987 1126 1100 1099 1041 900 764 841 1120 535 387 377 80 74 39 31 25 29 19 27 26 24 46 24 1 0 0 3 3 44 41 48 32 28 29 36 31 16 5 4 5 13 11
1332 1346 1370 1098 1282 1627 610 928 995 905 331 316 333 39 44 12 5 7 12 19 28 23 37 38 7 0 0 0 2 18 25 40 62 47 47 46 37 17 13 9 9 8 5
1671 1674 1606 1379 1224 766 642 800 921 794 546 249 54 58 25 35 19 0 4 7 5 18 30 17 0 0 0 0 0 0 1 19 30 42 44 52 41 32 30 23 18 11 11
1432 1688 1453 1296 665 316 795 806 661 1009 288 255 108 17 46 35 38 13 0 0 18 16 3 6 3 0 0 0 0 0 0 0 0 10 28 39 45 33 28 28 30 18 12
1652 1309 1181 844 324 291 583 708 785 720 325 193 177 254 50 35 33 31 10 4 18 12 13 10 7 0 0 0 0 0 0 0 0 0 0 11 38 38 22 26 28 26 19
1276 873 718 441 187 289 210 155 596 565 258 110 88 114 134 29 21 40 39 18 11 1 4 10 2 0 0 0 0 0 0 0 0 0 0 0 0 17 25 67 99 143 171
957 683 534 304 233 354 262 349 165 389 260 125 93 33 9 62 79 28 29 31 25 8 10 0 3 7 0 0 0 0 0 0 0 0 0 0 0 0 0 10 72 99 113
775 649 404 172 251 300 163 114 512 335 101 154 78 21 19 12 8 66 37 26 46 5 2 0 0 3 3 0 0 0 4 10 9 5 10 13 10 9 5 5 6 1 1
621 528 299 131 83 102 52 268 173 138 84 57 42 24 11 13 19 14 26 34 42 40 31 0 0 0 11 9 15 23 12 35 47 39 14 15 19 17 13 11 5 7 13
536 415 144 94 65 56 131 173 94 30 12 16 22 38 19 15 10 19 25 8 4 3 108 4 0 14 39 31 58 73 57 63 54 43 16 18 20 15 11 8 5 16 15
284 99 107 189 73 138 52 16 4 1 1 5 0 18 7 17 0 13 21 22 19 9 23 39 3 13 13 59 81 61 61 42 27 34 38 41 17 11 5 3 8 15 8
111 136 125 118 98 33 3 2 4 5 4 8 6 7 13 5 30 4 2 6 20 21 13 1 1 1 0 60 64 52 55 46 38 36 30 6 2 17 9 9 14 5 11
187 188 117 81 33 34 2 0 0 0 7 1 0 5 5 7 8 20 7 1 20 21 25 0 0 0 0 29 52 57 44 32 23 10 9 7 8 10 2 6 6 5 5
142 70 54 49 23 0 0 4 2 0 4 11 7 0 4 20 0 10 12 24 26 0 4 6 0 0 0 8 0 0 0 0 0 0 7 7 8 3 4 37 3 16 25
60 46 31 22 7 1 9 13 26 13 25 7 0 1 6 12 3 43 37 17 25 23 0 0 0 0 0 0 0 1 0 0 0 0 1 0 5 0 1 5 2 2 13
102 63 22 5 6 7 15 23 16 13 8 10 5 1 3 7 5 0 13 12 2 14 8 30 0 0 0 1 17 9 0 0 0 0 0 0 1 3 12 7 9 11 8
65 125 56 17 8 6 8 21 26 14 7 14 6 7 3 7 17 1 0 25 15 27 19 0 0 0 0 0 0 0 0 0 0 0 0 0 1 1 9 3 0 2 0
59 79 33 18 3 2 3 0 12 11 14 14 14 9 1 3 10 14 5 1 27 12 8 4 6 3 11 6 6 0 0 0 0 1 2 10 9 0 0 0 0 0 0
23 7 10 19 21 11 1 1 4 0 8 11 3 12 14 11 3 13 18 13 0 9 1 0 13 3 4 1 2 1 0 13 11 1 0 4 4 0 0 0 0 0 0

GFSMA_con_mucape_105.txt.gz
CAPE
1882 1834 2167 2077 1982 1763 1675 1573 1598 1427 1503 1458 1442 1380 963 1029 795 819 574 244 283 389 797 852 544 894 574 422 412 267 32 8 1 0 0 7 16 27 27 23 20 22 20
1840 1895 1692 1675 1698 1599 1438 1393 1372 1335 1275 1217 1236 1031 1096 846 600 218 132 133 120 208 506 873 862 845 611 360 321 195 18 19 13 2 3 13 21 22 21 26 24 21 17
2084 2195 1972 1425 1308 1265 1221 1088 1007 899 1074 819 740 969 1067 908 659 164 86 69 55 80 167 350 686 840 675 388 163 168 46 31 30 18 12 20 26 21 20 26 20 24 11
2032 2322 2147 1857 1368 1286 1216 1082 972 798 737 665 553 851 961 697 116 92 48 45 49 68 62 298 226 304 432 493 234 86 31 30 41 23 27 16 29 23 20 21 25 20 13
1915 1973 2121 1957 1502 1346 1234 1206 1097 900 651 507 579 735 758 439 53 34 64 36 43 58 58 60 114 210 225 320 245 147 37 21 37 22 27 28 21 20 12 6 21 14 12
1908 1888 1806 1371 1142 1284 1016 1105 1003 832 743 588 423 372 367 380 172 58 53 45 49 41 35 51 126 282 113 104 202 145 41 31 31 24 23 24 20 24 25 10 26 15 16
1632 1566 1389 1245 1139 1093 1175 860 683 791 572 417 342 346 215 323 220 62 164 110 110 28 28 35 62 206 132 68 89 148 54 49 27 30 31 35 27 28 33 26 16 22 13
1180 1164 1161 979 1045 900 1026 791 525 678 436 543 400 353 183 78 107 115 89 140 156 83 16 29 58 88 114 59 21 39 46 49 36 32 55 47 42 29 20 14 11 17 9
1170 1119 1015 818 805 807 888 609 518 729 308 481 602 320 201 139 15 23 28 112 116 89 60 11 44 42 37 11 0 9 14 24 50 69 68 48 43 36 26 23 20 8 13
1055 1125 909 730 726 882 808 549 498 440 251 180 282 248 117 18 29 6 1 6 93 48 25 20 7 37 8 1 0 2 0 14 24 57 58 56 41 41 35 27 18 15 14
1182 1012 862 809 965 937 731 876 630 284 207 290 228 261 90 24 15 124 2 0 5 13 8 2 5 37 11 2 1 0 0 5 15 30 41 58 62 46 34 30 26 25 21
1803 1132 1098 1201 1102 1125 1113 671 313 286 240 200 153 121 167 31 9 8 7 4 4 0 0 20 24 8 2 0 0 0 0 0 1 17 22 30 42 45 36 29 27 33 29
1448 1512 1122 1115 1417 1247 1154 489 194 295 202 251 207 267 135 63 73 37 102 25 1 0 0 3 7 18 2 0 0 0 0 0 0 0 0 10 16 30 39 40 46 49 57
1195 1709 998 1069 1384 1047 732 430 444 311 214 263 185 177 170 113 101 59 53 76 25 1 0 1 6 2 24 1 0 0 0 0 0 0 0 0 0 1 13 27 34 39 73
1192 1383 866 992 958 836 264 238 176 200 235 41 108 205 89 21 95 63 24 98 40 0 0 1 8 4 4 5 14 0 0 0 0 0 0 0 0 0 0 0 0 0 11
905 962 745 707 620 345 190 167 171 185 168 56 247 98 32 49 41 74 83 111 34 27 0 1 11 7 11 6 24 28 7 3 8 11 12 11 5 2 6 6 5 5 0
908 719 511 476 383 153 145 122 148 48 245 165 124 186 38 82 35 61 66 33 44 68 18 5 16 7 5 0 27 50 42 22 22 37 33 33 17 9 13 13 14 9 9
578 485 353 343 216 101 82 73 95 65 81 66 18 32 80 29 63 47 44 36 35 3 6 12 5 4 1 0 83 83 30 24 36 27 33 51 36 31 25 15 16 13 7
374 324 302 204 57 29 84 74 85 107 48 11 5 23 2 66 17 18 30 12 14 0 14 29 0 4 0 0 12 32 53 52 51 58 76 67 38 32 19 8 2 1 1
225 216 104 41 9 27 87 64 30 9 1 2 2 3 3 10 11 10 8 13 4 0 6 19 1 0 0 0 0 0 35 58 49 60 49 45 61 51 17 19 18 9 5
125 122 56 44 2 58 75 33 25 1 1 5 0 3 2 6 8 5 17 2 7 12 8 3 9 2 0 0 0 0 4 45 50 60 40 55 52 37 5 7 4 3 2
75 24 65 23 33 72 45 0 0 4 29 0 16 3 2 17 2 2 19 17 3 0 0 7 2 15 0 0 0 0 0 0 0 24 35 31 11 9 1 1 10 3 6
9 39 21 29 40 32 5 17 29 26 11 12 15 0 2 2 1 3 2 0 25 27 9 0 4 3 2 0 0 8 0 0 0 6 0 0 0 0 13 1 1 3 4
20 40 31 23 13 3 7 39 33 21 10 8 8 2 0 0 0 0 0 1 21 13 22 0 13 31 4 0 17 28 18 7 0 0 2 0 0 0 0 1 2 1 3
11 57 42 11 25 4 5 5 40 4 19 7 16 12 6 2 0 0 6 0 0 0 7 9 7 7 2 1 1 0 2 0 0 0 0 0 0 0 0 1 1 4 1
0 0 40 1 6 1 4 1 0 0 0 0 3 4 14 5 4 4 7 5 2 0 13 17 2 6 3 9 16 1 0 0 0 0 0 0 0 0 0 1 7 6 1

GFSMA_con_mucape_111.txt.gz
CAPE
3055 2273 2427 2058 2806 2583 2557 2552 2253 2178 2115 1909 1841 1666 1682 1559 1506 1352 1926 576 316 466 978 802 761 514 652 970 732 574 444 357 243 127 55 17 3 11 16 13 11 20 24
2635 2251 2356 2101 1757 2362 2725 2359 2215 2086 2095 2088 2004 1775 1872 1518 1445 1258 1066 992 298 271 492 441 444 95 331 791 539 460 340 269 185 27 1 0 0 1 6 7 4 28 24
3194 2931 2410 2247 1896 1971 3225 2873 2742 2229 2123 1837 1843 1666 1864 1535 1365 1222 1051 953 317 154 122 218 312 182 194 346 596 497 374 243 165 19 0 0 0 0 5 9 25 24 21
2860 3397 2546 2593 2351 2249 2290 2775 2587 2335 2053 1929 1931 1603 1560 1515 1383 1142 1035 901 538 255 47 18 5 2 36 132 308 333 280 214 118 21 0 1 2 6 12 20 20 5 7
2710 3141 2773 2318 2475 2338 2421 2407 2565 2416 2087 1999 1827 1873 1569 1284 1214 1227 924 848 472 284 279 60 9 0 38 98 205 325 312 160 67 3 2 0 11 14 16 27 6 6 4
2831 3147 2748 2566 2368 2317 2419 2416 2476 2289 2095 1711 1450 1244 1477 1318 1321 1317 903 610 487 316 230 66 10 2 20 49 90 318 343 247 56 8 10 8 20 28 14 24 14 11 8
2655 2971 2708 2397 2398 1892 2244 1970 2226 1897 1841 1888 1756 1412 1070 983 1018 1042 799 773 476 253 112 113 95 61 43 53 80 305 402 269 105 23 22 2 18 30 23 26 24 9 7
2980 2750 2794 2367 2491 1872 1756 1729 1764 1886 1685 1849 1193 891 725 728 744 794 776 802 675 581 116 109 55 94 127 78 41 57 247 326 134 59 34 2 21 38 32 16 11 7 17
3122 2777 2192 2535 2623 1850 1542 1697 1930 1738 1521 1426 1220 613 297 323 275 515 853 768 606 541 341 402 109 90 121 90 79 51 90 105 77 75 50 15 22 35 37 15 11 4 12
2690 2722 2693 2105 2732 2116 1922 1643 1729 1667 1472 765 1204 1070 960 495 428 351 479 696 754 530 714 503 336 128 96 101 47 122 65 58 30 28 55 29 35 40 41 40 17 3 10
2441 1867 2032 2303 2555 2340 2261 1955 1494 1725 1567 1250 998 858 1056 612 459 362 388 526 296 554 414 615 652 400 251 122 124 56 78 37 35 16 33 35 26 43 47 45 36 14 10
2362 1935 1770 1724 2286 2374 1913 2196 2133 1684 1800 1493 1190 857 547 564 263 398 304 203 270 355 288 462 488 383 262 272 126 26 23 35 39 12 11 27 24 39 43 39 39 33 37
2208 2169 1539 1797 1856 1998 2014 2275 2088 1193 1849 1735 1667 1184 896 763 458 374 578 388 224 536 160 63 158 311 119 178 150 37 20 14 9 6 5 20 20 18 26 29 30 34 37
2093 2354 1577 1698 1907 2010 2314 2140 1995 1408 1451 1616 1619 1510 1160 1089 1079 725 415 333 217 249 189 95 18 11 116 61 23 4 8 5 3 1 0 8 32 16 12 16 20 17 15
2030 2495 1846 2008 1767 1985 2104 1964 1990 2149 1542 636 1540 1541 1239 905 872 484 342 132 118 6 121 41 153 24 14 14 9 1 13 5 13 4 1 0 18 15 16 18 12 13 17
2029 2290 2332 1657 1795 1561 1687 1819 1824 1835 1877 1405 1249 1024 939 744 545 479 401 418 264 113 86 44 87 115 18 5 0 1 3 32 12 10 2 0 1 18 17 12 13 10 15
1865 1764 1851 1609 1461 1625 1431 2013 1808 1612 1258 893 929 882 828 631 553 345 314 275 408 265 147 96 84 144 93 22 1 4 1 24 7 5 7 0 0 2 3 6 10 17 27
1597 1746 1705 1429 1281 1525 1531 1649 1619 1468 1015 823 860 772 762 552 516 465 496 383 360 253 191 83 146 159 96 0 25 28 2 21 20 4 5 1 2 12 8 4 0 3 13
1033 1096 1338 1411 1434 1250 1154 1681 1395 1139 680 716 766 714 610 345 302 260 283 199 344 286 116 154 50 24 76 17 12 17 4 8 4 4 1 0 5 47 50 42 15 5 0
526 802 1065 1113 1193 1189 936 1288 903 908 556 470 268 237 122 95 113 63 59 51 77 101 39 10 6 16 6 1 13 0 2 18 3 1 2 2 20 71 83 76 39 34 35
482 556 697 697 707 768 860 923 574 453 210 145 124 79 41 31 25 1 0 0 0 0 1 76 0 0 1 1 1 6 4 4 1 3 1 0 5 65 98 94 101 107 86
107 429 262 434 580 602 689 533 246 147 73 55 59 28 51 20 9 2 0 0 0 0 0 0 5 0 0 4 0 0 0 0 0 0 0 0 0 54 9 87 98 108 103
50 72 168 212 254 312 274 216 91 59 32 17 71 34 10 34 5 5 0 0 0 0 0 0 0 0 1 0 2 0 0 15 0 0 0 0 7 3 1 0 43 48 65
22 27 48 28 3 170 104 13 29 33 37 11 10 10 1 12 4 0 0 0 0 0 0 0 0 0 0 3 0 0 0 15 19 3 3 0 0 0 1 11 4 11 18
0 0 0 9 0 0 27 32 23 28 33 5 0 2 17 10 0 0 0 0 0 0 0 0 1 0 0 4 8 2 0 0 2 0 0 0 0 0 0 0 0 1 1
0 0 0 0 0 0 0 0 0 0 0 0 0 0 0 1 3 1 0 0 0 0 1 7 0 1 0 0 1 0 0 0 0 0 0 0 0 0 0 0 0 1 2

GFSMA_con_mucape_114.txt.gz
CAPE
2398 2403 2083 2230 2311 2146 2107 1953 1940 1935 1858 1762 1708 1448 1345 1318 1227 1149 1154 846 348 695 1585 1282 985 854 750 585 367 587 711 747 636 541 390 299 270 201 26 0 4 4 12
2015 2414 2189 2248 2411 2312 2162 2011 1783 1541 1842 1774 1574 1602 1378 1371 1201 1274 1191 759 440 224 665 1246 916 513 416 416 118 253 413 518 435 388 310 200 152 96 15 5 14 12 15
2354 2299 2471 1986 1861 2318 2119 2058 2175 2041 1946 1778 1583 1519 1426 1372 1229 1128 970 699 600 141 266 368 600 570 170 7 0 23 219 261 291 192 75 15 0 13 9 11 16 7 6
2278 2722 2228 2296 2431 1818 2331 2246 2146 1750 1857 1910 1661 1650 1584 1307 1150 1037 976 667 464 162 51 82 202 239 145 36 27 6 306 201 222 103 7 0 0 6 6 13 10 6 14
2716 2329 2447 2220 2162 2453 2108 2332 2048 1843 1918 1697 1698 1622 1422 1204 1069 1029 863 722 468 339 136 89 19 15 19 32 3 79 232 237 194 87 14 0 0 0 5 16 11 18 9
2211 2411 2372 2542 2062 2123 2168 2167 2026 2106 1897 1691 1789 1455 1346 1156 1009 970 869 714 467 293 162 105 26 18 4 9 32 154 225 329 186 70 1 3 0 0 7 14 17 25 27
2403 2289 2327 2531 2333 1867 1834 1887 2101 1927 1944 1914 1606 1329 1207 1154 1091 890 750 571 398 295 207 175 17 13 5 2 18 138 238 552 222 123 71 2 6 6 9 17 11 16 34
2385 2504 2452 2440 2347 1995 1645 1834 2195 1949 1709 1785 1509 1069 773 882 928 836 686 595 398 255 188 40 23 3 16 5 2 68 96 299 273 258 103 7 5 5 16 19 10 10 10
2544 2023 2261 2307 2197 1969 1607 1793 1955 1858 1421 1358 1447 730 389 301 570 613 733 513 404 320 236 157 10 0 6 22 31 5 5 120 200 213 124 1 0 9 24 25 16 16 4
1118 2145 1948 2247 2057 2063 1610 1403 1731 1633 1318 1145 1396 1257 559 404 254 424 501 535 441 358 299 215 115 20 0 9 36 14 5 36 92 85 92 8 5 13 30 29 29 31 28
840 1752 1975 2098 2065 2093 1888 1390 1639 1537 1271 1075 1019 1055 930 688 557 445 520 460 597 456 317 297 206 74 4 0 1 12 17 9 37 56 23 24 24 19 25 31 31 42 37
490 1260 1732 1928 1959 1793 1885 1673 1494 1540 1273 1260 955 807 871 706 613 389 305 331 266 290 394 406 193 194 94 19 0 0 28 38 25 37 26 10 17 28 26 30 39 31 38
0 374 1318 1584 1760 1801 1867 1882 1768 1509 1401 1245 1197 856 758 642 554 277 317 239 210 261 255 377 253 193 166 121 59 25 2 25 54 28 16 16 5 9 11 21 32 40 38
0 1 1063 1201 912 1522 1569 1665 1677 1682 1487 1334 1161 1041 708 468 435 235 148 186 298 234 156 125 92 164 189 109 111 90 61 14 15 34 55 49 1 2 5 7 19 17 23
0 0 247 1361 1553 1692 1524 1600 1742 1608 1550 1276 1392 1218 915 696 518 383 341 337 319 159 117 128 86 27 0 88 71 31 6 5 0 29 50 53 0 0 4 12 15 9 11
0 0 0 1050 1843 1746 1703 1703 1666 1467 1391 1278 1139 664 880 484 206 571 444 332 147 112 52 56 37 59 29 4 6 2 0 0 3 24 26 10 4 4 21 19 9 6 9
18 0 0 823 1594 1569 1655 1698 1602 1452 1381 1325 1137 935 649 21 212 416 220 227 129 100 62 47 58 69 80 48 21 8 18 2 20 35 21 21 13 4 11 27 13 11 11
453 387 222 948 1255 1348 1336 1532 1575 1456 1392 1140 1191 1096 737 440 457 391 317 258 159 181 99 63 45 72 64 43 67 32 28 19 4 27 21 26 8 3 5 11 36 38 26
110 361 787 940 1087 1196 1172 1453 1517 1482 1549 1402 1148 931 740 584 496 376 286 231 209 149 116 85 68 64 73 73 38 20 17 1 0 1 27 30 15 10 5 7 83 78 43
0 0 121 481 766 1125 1155 1257 1333 1399 1298 1296 1062 678 508 532 453 301 173 147 119 90 78 67 44 41 19 33 54 37 10 1 8 7 5 21 12 21 6 1 2 27 69
0 61 40 158 296 351 768 1104 1118 1187 1209 907 768 539 396 339 227 107 72 39 8 86 87 8 9 6 10 99 52 36 38 10 1 16 5 1 6 13 3 6 2 41 85
83 117 115 253 337 404 723 872 968 872 825 809 531 364 206 109 57 58 23 6 37 1 0 0 0 0 2 1 15 30 0 22 11 8 43 0 1 0 3 3 36 56 102
4 93 159 288 390 534 534 628 574 615 597 602 197 107 84 69 80 41 8 0 1 0 0 0 0 0 7 10 7 16 3 0 2 7 11 0 2 0 2 3 35 42 81
0 1 52 132 258 181 246 326 386 363 341 351 186 33 30 10 3 7 15 2 0 0 0 0 0 0 0 0 3 9 0 0 7 6 9 0 0 0 1 3 4 2 11
0 0 0 18 89 122 104 123 141 275 241 108 67 39 6 0 14 7 2 0 0 0 0 0 0 0 0 3 0 4 2 0 0 0 2 0 0 0 0 0 1 8 1
0 0 0 0 0 3 21 28 2 2 41 9 2 6 18 11 0 0 6 0 0 0 0 0 0 5 10 4 0 0 8 0 8 0 0 0 0 0 0 0 0 1 1

GFSMA_con_mucape_117.txt.gz
CAPE
1936 2233 2184 2117 1967 1770 1756 1637 1570 1505 1443 1378 1282 1306 1329 1185 1071 1062 886 613 562 1063 1978 1879 1459 1348 1018 823 633 335 237 413 518 747 430 217 130 87 30 0 1 0 0
1659 1742 1908 1925 1869 1795 1733 1642 1742 1638 1560 1357 1338 1482 1348 1197 1260 1003 887 667 358 467 1115 2032 1835 1479 1091 898 624 447 339 426 456 812 456 237 117 42 0 0 9 5 10
2327 1834 2059 1878 1956 1970 1972 1888 1593 1708 1600 1363 1404 1201 1224 1184 1163 1093 850 713 524 271 279 1002 1348 1440 1318 837 602 255 156 134 46 415 343 243 151 17 0 0 3 10 15
2123 2318 1686 2011 1706 2044 2049 1956 1818 1627 1438 1267 1480 1395 1184 1169 1150 1058 981 751 701 545 228 502 567 652 518 626 384 109 90 13 217 314 248 184 144 35 0 0 9 13 14
2352 2185 2027 2040 1910 1760 2030 2093 1851 1706 1521 1236 1431 1436 1257 1260 1138 966 910 807 650 491 331 56 140 270 134 246 170 41 58 68 5 236 178 116 71 43 0 8 18 15 11
1614 2199 2155 2096 1944 1845 1929 1949 1802 1697 1515 1405 1561 1486 1312 1185 1123 1029 902 730 678 578 417 244 41 13 20 91 216 169 80 148 321 208 151 70 23 18 0 11 19 19 16
1513 1675 2106 1911 2029 1831 1515 1950 2019 1712 1641 1434 1528 1380 1395 1150 938 816 884 764 703 605 422 307 68 0 0 0 0 10 48 150 211 314 145 46 9 0 0 10 19 22 14
1089 1296 1509 1803 1787 1743 1276 1581 1762 1894 1732 1751 1262 1252 920 945 961 931 855 716 671 554 382 241 110 2 0 0 0 17 111 231 275 330 173 58 13 0 8 18 18 23 23
545 960 1310 1346 1461 1417 1277 1233 1257 1706 1626 1594 1353 895 603 745 464 773 853 680 523 484 359 260 167 27 0 0 0 0 1 2 63 254 189 58 11 0 9 10 19 27 32
386 433 897 893 1375 1187 1047 1081 1003 1234 1393 1196 1400 1091 428 215 217 101 491 650 601 453 372 303 176 109 22 0 0 0 0 5 2 54 194 102 52 0 7 20 17 34 30
0 245 563 518 776 1089 978 925 846 1364 1171 1064 1031 1202 1068 505 251 357 294 573 609 467 484 323 218 127 42 0 0 0 1 0 5 23 118 119 39 0 0 20 29 37 43
0 0 166 526 479 940 1253 1168 1067 1082 1326 1250 983 809 847 753 500 538 435 428 420 473 445 423 309 193 103 58 0 0 0 0 4 49 88 58 19 0 2 8 25 44 47
0 0 0 29 394 570 1075 1250 993 1081 1137 1252 1154 1161 852 832 657 555 473 409 445 373 406 440 343 283 190 113 40 0 0 0 3 11 64 54 48 14 3 1 14 35 45
0 0 0 0 0 221 769 962 902 966 1188 1217 1123 1000 1310 834 777 734 486 336 169 213 297 327 378 367 247 176 150 83 52 31 21 15 8 89 92 32 19 0 0 7 20
0 0 0 0 0 0 496 963 886 712 1410 1497 1340 1193 1025 1127 829 792 596 331 185 179 273 244 189 260 236 220 206 186 136 88 70 22 31 34 85 78 48 0 0 0 1
0 0 0 0 0 0 136 913 776 811 1076 1336 1374 1243 1066 814 715 607 493 280 154 140 168 216 219 152 140 141 150 128 72 65 48 79 51 63 56 57 55 10 1 0 6
0 0 0 0 0 0 0 966 991 802 943 1051 1228 1260 1106 835 703 595 480 350 252 302 223 295 89 108 77 30 6 23 14 6 1 1 26 19 70 56 44 9 5 3 12
0 6 4 90 144 0 0 889 1416 1104 964 1098 1192 1135 960 876 792 688 366 63 41 79 263 239 71 55 64 68 52 12 0 0 0 0 0 20 36 77 51 37 5 15 8
4 16 3 14 156 101 18 658 1159 1262 1128 952 1172 1050 992 860 703 492 213 210 155 134 133 89 89 107 105 76 64 59 41 11 0 3 5 16 50 70 50 19 9 3 1
7 1 0 1 34 456 292 687 708 675 704 951 1005 988 1016 836 560 322 183 185 201 212 198 200 168 120 113 49 62 46 11 15 9 6 1 2 15 34 51 30 25 3 6
2 0 0 0 4 11 228 396 285 551 723 865 755 698 1049 907 456 268 321 344 247 190 126 154 124 253 140 18 11 3 4 13 5 8 3 11 4 14 30 24 24 15 9
0 0 0 1 0 0 41 138 207 412 485 671 602 876 963 845 531 501 516 431 301 171 90 26 100 115 12 0 25 23 17 3 11 8 3 15 13 5 32 12 3 21 17
3 1 0 0 5 0 9 72 0 90 208 427 550 611 717 591 429 409 429 304 131 91 42 65 70 13 0 1 0 9 5 15 2 6 21 0 8 0 4 7 8 8 4
0 0 2 0 36 8 30 34 22 295 282 325 329 432 401 315 281 294 303 79 68 88 22 0 8 5 0 0 2 0 5 4 6 2 8 5 12 0 16 13 6 6 2
0 0 0 0 19 0 52 30 67 96 210 266 259 191 286 205 246 118 83 70 29 13 5 1 2 3 1 0 0 0 0 0 0 6 0 0 14 0 2 12 3 2 3
0 0 0 0 0 0 0 11 12 0 80 117 168 84 1 40 0 11 13 2 22 0 5 1 0 1 0 0 3 0 0 0 1 2 4 0 0 0 0 0 1 7 2